Regional Weather Roundup
Issued by NWS Portland, ME

Current Version | Previous Version | Text Only | Print | Product List | Glossary Off
Versions: 1 2 3 4 5 6 7 8 9 10 11 12 13 14 15 16 17 18 19 20 21 22 23 24 25 26 27 28 29 30 31 32 33 34 35 36 37 38 39 40 41 42 43 44 45 46 47 48 49 50
000 ASUS41 KGYX 151805 RWRGYX WEATHER ROUNDUP FOR MAINE AND NEW HAMPSHIRE NATIONAL WEATHER SERVICE GRAY ME 100 PM EST FRI DEC 15 2017 MEZ002-005-006-010-012-015-018-020-021-024-026-027-029-151900- MAINE CITY SKY/WX TMP DP RH WIND PRES REMARKS PORTLAND CLOUDY 22 5 48 VRB5 29.99F 6HR MIN TEMP: 6; 6HR MAX TEMP: 22; SANFORD CLOUDY 25 8 48 SW6 29.98F BAR HARBOR SUNNY 25 5 42 W7 29.99 WISCASSET CLOUDY 22 1 40 S3 30.01F 6HR MIN TEMP: 1; 6HR MAX TEMP: 22; ROCKLAND SUNNY 22 4 46 W7 29.99F FRYEBURG SUNNY 21 1 41 CALM 29.95F 6HR MIN TEMP: -3; 6HR MAX TEMP: 21; LEWISTONAUBURN SUNNY 24 8 50 CALM 29.98F AUGUSTA SUNNY 20 0 41 VRB3 29.97F 6HR MIN TEMP: 6; 6HR MAX TEMP: 21; WATERVILLE SUNNY 25 1 35 SW7 29.92F BANGOR MOSUNNY 19 7 59 W8 29.98F 6HR MIN TEMP: 6; 6HR MAX TEMP: 19; GREENVILLE N/A 16 1 51 VRB3 29.81F 6HR MIN TEMP: 2; 6HR MAX TEMP: 16; MILLINOCKET SUNNY 19 2 47 VRB6 29.93F 6HR MIN TEMP: 1; 6HR MAX TEMP: 19; HOULTON SUNNY 16 2 54 SW12 29.86F WCI 3 6HR MIN TEMP: 1; 6HR MAX TEMP: 17; PRESQUE ISLE NOT AVBL FRENCHVILLE SUNNY 8 -3 61 W10 29.76R WCI -6 6HR MIN TEMP: -3; 6HR MAX TEMP: 8; CARIBOU SUNNY 13 -2 51 SW10 29.82S WCI 0 6HR MIN TEMP: 1; 6HR MAX TEMP: 13; $$ NHZ002-005-008-009-011-012-014-151900- NEW HAMPSHIRE CITY SKY/WX TMP DP RH WIND PRES REMARKS PORTSMOUTH CLOUDY 24 6 46 SW6 29.99F ROCHESTER CLOUDY 23 6 48 VRB3 29.96F 6HR MIN TEMP: 6; 6HR MAX TEMP: 23; NASHUA CLOUDY 26 12 55 SE3 30.00F MANCHESTER PTSUNNY 24 9 52 CALM 29.98F 6HR MIN TEMP: 10; 6HR MAX TEMP: 24; CONCORD CLOUDY 23 8 52 CALM 29.98F 6HR MIN TEMP: -1; 6HR MAX TEMP: 23; LACONIA MOSUNNY 22 7 52 SW6 29.96F PLYMOUTH FAIR 23 3 42 CALM 29.94F BERLIN SUNNY 21 1 41 NW3 29.88F 6HR MIN TEMP: -16; 6HR MAX TEMP: 21; WHITEFIELD SUNNY 21 3 45 CALM 29.89F 6HR MIN TEMP: -16; 6HR MAX TEMP: 22; JAFFREY MOSUNNY 21 12 68 S6 29.92F 6HR MIN TEMP: 3; 6HR MAX TEMP: 22; KEENE CLOUDY 22 17 81 CALM 29.98F LEBANON MOSUNNY 16 6 65 CALM 29.95F 6HR MIN TEMP: -11; 6HR MAX TEMP: 16; MT WASHINGTON NOT AVBL $$ VTZ005-007-008-151900- VERMONT CITY SKY/WX TMP DP RH WIND PRES REMARKS ST JOHNSBURY N/A 14 3 61 MISG 29.92F MONTPELIER SUNNY 20 6 55 VRB5 29.91F BURLINGTON PTSUNNY 22 8 55 SW10 29.94F WCI 11 $$ MAZ007-012-024-CTZ003-RIZ002-NYZ038-NYZ072-151900- SOUTHERN NEW ENGLAND AND NY CITY SKY/WX TMP DP RH WIND PRES REMARKS BOSTON CLOUDY 26 11 52 S6 30.02F WORCESTER CLOUDY 21 8 57 SW5 29.94F NANTUCKET MOSUNNY 30 21 69 W5 30.02F PROVIDENCE CLOUDY 25 11 55 CALM 30.03F HARTFORD CLOUDY 22 10 60 S5 30.01F ALBANY PTSUNNY 21 8 57 VRB6 29.98F NEW YORK CITY CLOUDY 29 12 49 S5 30.00F $$ ANZ081-ANZ082-ANZ150-NHZ014-MEZ023>029-151900- COASTAL MARINE OBSERVATIONS STATION/POSITION TIME TEMP WIND PRES WAVE AIR SEA DIR/SP/G HT/PER (UTC) (F) (DEG/KT/KT) (MB) (FT/S) MOUNT DESERT ROC 1800 27 240/ 11/ 12 1015.5F MATINICUS ROCK 1700 26 250/ 9/ 11 1015.5F ISLE OF SHOALS 1700 23 270/ 8/ 9 1016.5F JEFFREYS LEDGE 1736 48 N/A 2/11 GEORGES BANK BUO 1650 38 50 1017.7 10/10 $$ .............KEY.............. WCI - WIND CHILL TC - TEMPERATURE IN CELSIUS VSB - VISIBILITY IN MILES HX - HEAT INDEX FAIR- INDICATES FEW OR NO CLOUDS BELOW 12,000 FT, WITH NO SIGNIFICANT WEATHER AND/OR OBSTRUCTIONS TO VISIBILITY.

USA.gov is the U.S. government's official web portal to all federal, state and local government web resources and services.